Home   Weather   Majuro   Past weeks
Flag for Marshall Islands

Past Weather in Majuro, Marshall Islands — Yesterday and Last 2 Weeks

Now
82 °F

Overcast.


Feels Like: 89 °F
Forecast: 86 / 81 °F
Wind: 6 mph from East

Location: Majuro Atoll

Current Time: May 22, 2019 at 10:00:59 pm

Latest Report: May 22, 2019 at 8:57 pm


Visibility: 15 mi

Pressure: 29.86 "Hg

Humidity: 84%

Dew Point: 76 °F

Location of MajuroLocation

Past Weather in Majuro — Graph

°F

Majuro Temperature Yesterday

Maximum temperature yesterday: 86 °F (at 10:51 am)
Minimum temperature yesterday: 81 °F (at 5:51 am)
Average temperature yesterday: 83 °F

High & Low Weather Summary for the Past Weeks

 TemperatureHumidityPressure
High98 °F (May 14, 2:54 am)94% (May 9, 5:43 pm)29.93 "Hg (May 9, 5:43 pm)
Low76 °F (May 10, 3:54 am)47% (May 14, 2:54 am)29.70 "Hg (May 8, 4:52 pm)
Average82 °F83%29.83 "Hg
* Reported May 7 8:55 pm — May 22 8:57 pm, Majuro. Weather by CustomWeather, © 2019

Note: Actual official high and low records may vary slightly from our data, if they occured in-between our weather recording intervals... More about our weather records

Advertising

Majuro Weather History for the Previous 24 Hours

Scroll right to see more
 ConditionsComfort  
Time TempWeatherWind HumidityBarometerVisibility
8:57 pm
Wed, May 22
82 °FOvercast.6 mph84%29.86 "Hg15 mi
7:51 pm81 °FOvercast.5 mph86%29.85 "Hg15 mi
6:53 pm81 °FCloudy.3 mph86%29.83 "Hg15 mi
5:52 pm81 °FCloudy.3 mph88%29.82 "Hg15 mi
4:51 pm80 °FSprinkles. Cloudy.5 mph89%29.81 "Hg14 mi
3:56 pm83 °FSprinkles. Cloudy.6 mph84%29.82 "Hg14 mi
2:53 pm84 °FCloudy.6 mph80%29.82 "Hg15 mi
1:51 pm84 °FCloudy.7 mph80%29.83 "Hg15 mi
12:54 pm85 °FCloudy.3 mph80%29.86 "Hg15 mi
11:53 am83 °FCloudy.5 mph85%29.88 "Hg15 mi
10:51 am82 °FCloudy.6 mph85%29.88 "Hg15 mi
9:53 am83 °FCloudy.7 mph84%29.89 "Hg15 mi
8:54 am82 °FMore clouds than sun.2 mph85%29.88 "Hg15 mi
7:52 am81 °FMore clouds than sun.2 mph90%29.86 "Hg15 mi
6:54 am79 °FMostly cloudy.No wind91%29.85 "Hg15 mi
5:51 am78 °FMostly cloudy.No wind91%29.83 "Hg15 mi
4:52 am78 °FMostly cloudy.No wind92%29.83 "Hg15 mi
3:50 am79 °FSprinkles. Overcast.2 mph89%29.83 "Hg12 mi
2:50 am81 °FPartly cloudy.No wind86%29.83 "Hg15 mi
1:50 am81 °FMostly cloudy.2 mph84%29.83 "Hg15 mi
12:53 am82 °FMostly cloudy.3 mph83%29.85 "Hg15 mi
11:52 pm
Tue, May 21
82 °FMostly cloudy.No wind83%29.85 "Hg15 mi
10:54 pm82 °FPassing clouds.No wind84%29.85 "Hg15 mi
Weather by CustomWeather, © 2019

See weather overview